Temperature
26 24 24 24 24 25 25 24 24 24 24 23 23 22 22 22 21 21 21 21 21 21 21 21 21 20 20 20 20 19 19 19 19 19 18 18 18 18 18 18 18 18 18 18
24 25 25 25 25 25 25 24 24 24 24 23 22 22 22 22 21 21 21 21 21 21 21 21 21 21 20 20 20 20 19 19 19 19 19 18 18 18 18 18 18 18 18 18
26 26 26 26 25 25 25 24 24 24 24 23 23 23 22 22 22 22 22 22 22 22 22 22 21 21 21 20 20 20 20 19 19 19 18 18 18 18 18 18 18 18 18 17
25 26 26 26 26 25 25 25 25 24 23 22 23 22 22 21 21 21 21 21 22 22 22 22 22 21 21 21 20 20 20 19 19 19 19 18 18 18 18 18 18 18 17 17
26 26 26 26 26 26 25 25 24 24 22 22 22 21 21 20 20 21 21 21 22 22 22 22 22 22 21 21 20 20 20 19 19 19 19 18 18 18 18 18 18 18 17 17
25 26 26 26 26 26 25 23 22 20 20 21 21 21 21 20 20 21 21 21 22 22 22 22 22 22 21 21 20 20 20 20 19 19 19 19 18 18 18 18 18 18 17 17
26 26 26 26 26 25 24 22 21 22 20 21 21 21 21 21 21 21 21 21 22 22 22 22 22 21 21 21 20 20 20 20 19 19 19 19 19 18 18 18 18 18 18 17
24 24 26 26 26 24 23 22 22 22 21 21 21 21 21 22 22 22 22 22 22 22 22 22 22 22 21 21 21 20 20 20 20 19 19 19 18 18 18 18 18 18 18 17
23 24 25 26 26 24 23 22 21 19 20 21 20 21 21 21 21 21 21 21 21 21 22 22 22 22 21 21 21 20 20 20 19 19 19 19 18 18 18 18 17 17 17 17
22 24 25 25 25 24 23 19 19 19 20 21 22 21 21 22 21 20 20 20 21 21 21 22 22 22 21 21 21 20 20 20 20 19 19 19 18 18 18 17 17 17 17 17
22 23 24 25 25 24 22 21 18 17 19 20 21 21 21 20 20 20 20 21 21 21 21 22 22 22 21 21 21 20 20 20 20 19 19 19 18 18 18 17 17 17 17 17
20 20 21 23 23 23 23 21 19 21 19 18 19 21 21 20 20 20 20 21 21 21 22 22 22 21 21 21 21 20 20 20 19 19 19 19 18 18 18 17 17 17 17 17
20 19 21 23 22 23 22 21 19 18 17 17 20 22 21 19 19 20 20 21 21 21 21 21 21 21 21 21 21 20 20 20 19 19 19 18 18 18 18 17 17 17 17 17
20 18 20 22 22 22 22 21 20 19 19 18 19 21 21 19 19 19 20 20 21 21 21 21 21 21 21 21 21 21 20 20 19 19 19 18 18 18 17 17 17 17 16 16
19 19 20 21 22 22 22 22 21 21 20 20 20 20 20 19 19 19 20 20 20 20 20 21 21 21 21 21 21 21 20 20 19 19 19 18 18 17 17 17 17 16 16 16
17 19 20 21 21 22 22 22 21 21 20 20 20 20 19 19 19 19 19 20 20 20 21 21 21 21 21 21 21 20 20 20 19 19 19 18 18 17 17 17 17 16 16 16
16 18 18 19 20 22 21 21 21 21 20 20 20 20 19 18 18 19 19 20 20 20 21 21 21 21 21 21 21 20 20 20 19 19 18 18 17 17 17 17 17 16 16 16
16 15 15 17 20 21 20 20 20 20 19 19 19 19 18 18 19 20 20 20 20 20 20 21 21 21 21 21 20 20 20 19 19 19 18 18 17 17 17 17 16 16 16 15
14 15 15 15 18 19 20 20 20 19 19 18 18 18 18 19 19 19 20 20 20 20 20 20 21 21 21 20 20 20 20 19 19 18 18 18 17 17 17 16 16 16 15 15
13 14 15 15 18 19 19 20 20 20 19 18 18 17 18 18 17 18 20 20 20 20 20 20 20 20 20 20 20 20 19 19 19 18 18 18 17 17 16 16 16 15 15 15
15 14 15 16 17 18 18 18 20 20 19 18 18 18 18 18 18 20 20 20 20 20 20 20 20 20 19 19 19 19 19 19 18 18 17 17 17 16 16 16 15 15 15 14
15 15 14 14 17 17 17 18 18 17 18 19 18 19 19 19 19 19 20 20 19 19 19 19 19 19 19 19 19 19 18 18 18 17 17 17 16 16 16 15 15 14 14 14
13 14 13 14 15 16 16 17 18 18 18 18 19 19 19 19 19 19 19 19 19 19 19 19 19 19 19 18 18 18 18 18 17 17 17 16 16 16 16 15 15 14 14 14
13 12 13 13 15 15 17 17 18 18 18 19 19 19 19 19 19 19 19 18 19 19 18 18 18 18 18 18 18 18 18 17 17 17 16 16 16 16 15 15 14 14 14 14
13 13 13 13 14 15 17 17 18 18 19 18 18 18 18 19 18 19 18 18 18 18 18 18 18 18 18 18 17 18 17 17 17 16 16 16 15 15 15 14 14 14 14 14
12 13 13 14 15 14 16 18 18 18 18 18 18 18 18 18 18 18 18 18 18 18 17 18 18 18 18 17 17 17 17 17 16 16 16 15 15 15 14 14 14 14 14 13
Wind_Speed
4 5 4 8 7 5 6 6 3 3 2 4 4 3 5 8 8 8 8 8 8 8 6 5 5 5 5 4 4 3 3 3 3 2 2 2 1 0 0 1 1 1 2 2
5 2 7 6 5 6 6 5 2 1 1 3 1 2 4 8 10 10 10 10 9 7 5 6 6 6 5 5 5 4 4 3 3 2 2 2 1 1 0 1 0 1 1 2
6 6 4 6 5 5 4 7 6 4 3 4 3 4 2 4 5 6 7 8 8 9 9 8 7 7 6 6 6 5 4 4 3 3 2 2 2 2 1 1 1 1 1 2
5 4 5 5 5 7 4 6 7 6 5 0 2 2 6 4 5 7 8 8 9 9 8 7 7 7 8 7 5 4 4 4 4 4 3 3 2 1 1 1 1 1 1 1
4 3 5 5 6 8 5 4 6 5 5 3 2 1 8 1 5 9 10 10 10 10 10 9 9 8 7 6 5 5 4 4 4 4 4 4 2 2 1 0 0 1 1 1
4 2 4 5 2 6 7 9 8 7 5 1 2 3 7 4 7 6 9 10 9 10 10 8 7 5 5 5 5 5 5 4 4 4 4 4 4 3 2 1 1 1 1 1
2 2 2 4 5 4 7 7 4 4 4 4 2 3 8 7 6 6 8 9 8 8 8 7 7 7 7 6 6 5 6 4 4 4 4 4 4 4 4 3 3 2 1 1
4 4 4 4 6 7 6 9 8 6 5 4 1 5 7 5 4 3 4 6 7 7 8 8 9 8 8 8 7 7 6 5 4 4 4 3 3 3 2 3 3 2 2 2
7 6 4 2 3 10 7 4 7 8 4 1 4 6 8 3 3 1 2 5 7 7 8 8 8 8 8 8 8 8 7 5 4 4 3 2 3 3 3 2 1 1 1 1
9 4 3 1 5 6 6 10 7 7 6 3 4 4 5 6 5 3 3 6 7 7 7 7 7 8 7 7 6 6 7 6 5 4 3 3 3 3 2 2 1 1 1 0
5 5 2 2 4 5 5 5 6 6 6 7 4 7 6 7 7 6 7 7 7 9 8 7 6 6 6 6 6 6 6 5 4 4 3 2 2 2 2 2 1 1 1 1
4 5 2 3 3 2 5 7 8 7 5 5 5 7 5 5 5 6 6 5 6 7 7 6 6 6 5 6 6 6 5 5 4 3 3 3 2 2 2 1 1 1 1 1
5 6 3 4 5 3 4 3 4 7 6 6 6 6 3 0 1 3 5 5 5 6 6 5 5 6 6 6 6 6 6 5 4 4 4 3 2 2 2 1 1 1 1 1
6 5 6 9 8 4 3 2 4 6 5 6 7 6 4 3 2 2 3 5 6 7 7 7 6 5 5 6 7 7 6 5 5 4 4 3 2 2 2 1 1 1 1 1
5 4 3 2 3 4 3 4 5 5 7 8 7 6 7 5 5 4 4 4 5 6 7 7 7 6 5 5 6 6 6 5 5 5 5 4 3 2 2 2 2 2 2 2
4 5 3 1 1 3 2 2 5 4 4 4 3 4 4 2 1 2 3 4 5 5 6 7 7 7 6 6 6 6 6 6 6 6 5 3 3 3 3 2 2 2 2 2
2 5 4 2 2 3 1 3 5 3 3 6 6 6 1 1 2 4 5 5 6 6 6 6 6 6 6 6 7 7 7 6 6 5 5 4 4 3 3 3 3 2 2 2
5 5 4 2 3 4 7 2 4 5 1 2 2 2 3 3 3 2 2 4 4 4 4 5 5 5 5 6 6 5 6 6 6 5 5 4 5 4 4 3 3 2 1 2
4 7 5 4 4 3 4 1 3 4 1 0 3 1 2 2 3 2 1 2 3 3 4 4 4 4 5 6 7 7 6 6 6 6 5 5 5 5 4 4 3 2 2 1
5 5 6 4 5 6 6 3 1 5 2 2 2 2 2 3 2 4 2 1 1 1 2 2 3 4 5 5 7 7 7 6 7 7 6 6 5 5 5 4 3 2 2 2
4 4 4 4 3 5 4 4 2 5 6 3 2 3 4 3 5 4 1 1 2 2 3 3 4 4 3 4 6 6 6 6 5 4 4 4 4 4 4 4 3 3 3 3
4 4 3 4 4 6 3 2 4 5 2 2 2 2 3 3 2 1 1 1 1 2 3 3 4 3 3 4 6 5 5 4 3 4 4 5 5 5 4 5 4 4 4 3
3 5 5 6 5 4 2 3 2 2 1 1 1 1 2 2 2 1 1 1 1 2 3 3 3 3 2 3 5 5 4 4 5 4 4 5 5 4 4 5 5 4 4 4
1 1 3 0 3 3 2 1 1 1 1 0 1 1 1 2 3 3 2 2 2 1 2 3 3 3 2 2 3 4 4 4 5 4 4 4 4 4 3 3 4 4 5 5
3 1 2 1 3 3 3 2 1 1 1 1 1 1 2 3 4 4 4 4 3 3 3 3 4 4 4 3 3 3 4 5 5 4 4 3 3 4 3 3 3 4 4 5
3 4 4 5 6 4 5 5 2 1 1 0 1 2 2 3 5 4 4 4 4 4 4 4 4 5 5 4 4 4 4 6 6 4 4 3 3 3 3 3 2 1 3 5
Wind_Direction
58 88 172 200 192 171 158 157 186 228 183 149 192 208 188 179 182 191 195 196 201 210 203 182 182 176 165 158 160 165 156 147 127 111 118 122 164 236 310 261 218 199 194 173
53 229 216 180 158 133 138 147 177 259 115 140 172 244 207 193 200 200 200 203 204 203 191 185 181 176 178 179 179 173 171 158 152 148 145 145 140 151 209 295 6 223 200 183
182 226 163 143 142 139 166 173 183 171 79 63 75 342 254 225 215 215 212 206 203 203 199 193 186 187 185 190 189 186 177 165 163 155 116 91 73 52 45 5 340 296 231 212
213 231 157 157 175 153 203 200 165 142 116 4 109 279 283 230 221 224 221 212 207 207 198 194 194 194 196 200 187 172 166 160 158 148 146 149 152 179 223 235 269 317 311 239
224 183 163 189 202 166 187 129 122 116 115 70 43 138 290 275 237 237 226 219 211 201 193 195 198 198 195 185 175 166 155 156 155 155 163 156 162 179 169 131 2 308 308 285
228 216 186 193 154 138 122 83 65 53 69 38 251 169 279 242 230 240 220 216 205 193 189 192 188 175 173 166 165 160 158 167 166 161 164 169 176 176 166 182 217 259 276 287
310 293 232 150 103 76 107 101 55 16 16 254 251 185 251 256 239 228 214 208 195 181 176 174 170 169 172 170 170 165 165 176 178 170 174 183 186 184 190 202 209 213 234 259
173 261 232 182 166 165 165 139 153 179 210 263 298 230 257 276 269 243 204 183 169 170 174 176 177 175 178 179 175 169 171 181 186 186 190 187 184 183 197 207 205 205 218 233
173 232 280 226 149 135 135 149 151 130 135 131 278 284 302 306 314 288 159 157 172 176 173 175 177 178 179 180 182 176 174 180 195 197 187 191 183 177 187 195 194 206 228 239
156 196 281 317 81 44 132 139 107 121 142 206 283 276 258 271 264 241 186 177 180 171 169 173 178 181 182 182 180 175 175 184 189 189 190 193 186 181 173 160 167 186 206 138
136 153 303 55 153 168 109 97 104 109 140 152 217 263 235 233 231 216 207 192 179 174 177 178 179 181 178 173 176 179 179 179 181 181 179 168 166 165 151 158 182 191 188 134
122 125 187 261 286 194 144 152 146 147 181 166 171 256 282 236 224 198 193 184 173 171 172 173 166 163 170 181 181 177 178 176 178 171 161 160 151 144 151 174 197 172 123 87
127 112 95 356 345 17 89 118 129 119 118 149 166 252 322 351 186 185 174 172 162 155 152 154 156 164 176 179 175 175 174 171 167 157 153 147 143 144 154 168 145 114 99 77
114 109 159 188 209 187 148 137 145 125 141 178 209 235 288 287 253 238 188 171 160 155 158 163 169 175 182 179 178 178 179 168 158 146 140 139 147 146 150 138 107 87 92 92
94 120 156 204 207 156 159 166 163 162 172 176 212 212 244 240 227 221 195 166 152 158 164 171 178 183 183 185 180 177 174 165 159 151 151 160 152 147 141 134 117 100 93 99
68 119 104 45 45 142 111 153 172 177 170 178 167 231 260 267 142 164 188 184 179 187 186 183 185 186 186 187 188 182 173 167 158 158 167 166 155 154 150 145 121 104 89 83
83 118 110 202 303 76 264 224 182 172 187 168 190 221 180 114 201 209 207 199 201 205 200 192 194 196 196 193 190 183 173 160 158 166 166 163 161 165 167 157 128 125 116 96
134 110 117 128 104 190 238 253 165 144 120 147 153 177 172 198 218 219 191 190 206 205 197 197 195 200 193 179 171 164 154 156 164 170 172 172 172 177 170 153 150 148 123 118
143 134 122 128 155 242 279 231 162 152 231 193 149 139 93 111 63 358 313 179 201 208 209 207 196 176 160 159 160 153 153 158 168 180 185 190 184 177 171 170 173 165 143 137
65 96 118 129 149 210 232 268 261 121 243 267 165 160 135 96 87 266 278 214 200 165 165 153 132 128 140 154 154 154 164 173 187 192 191 187 181 177 180 181 178 164 157 175
49 56 112 148 184 248 261 288 99 154 227 252 193 184 163 177 210 240 249 191 174 146 127 119 117 126 150 150 148 161 173 192 201 188 174 166 171 177 179 169 167 162 166 167
157 140 160 147 171 239 294 98 155 210 233 178 183 194 180 201 212 197 150 151 132 112 108 116 120 125 135 141 147 160 183 187 164 171 172 174 177 185 182 168 173 172 175 185
181 186 178 184 205 247 257 195 207 164 146 207 200 237 189 208 228 228 215 189 160 140 137 140 143 143 144 149 153 169 189 161 155 164 181 184 185 187 177 178 180 183 190 201
287 135 124 212 276 290 300 325 21 106 133 223 210 218 201 215 225 226 211 200 193 190 177 167 156 166 193 193 182 187 174 155 154 170 183 182 180 183 181 186 190 195 204 210
229 127 100 275 288 330 323 304 295 354 37 68 35 270 231 215 228 222 208 204 205 208 208 193 192 197 208 208 209 189 168 160 166 173 182 187 186 182 187 193 209 216 223 216
218 184 173 218 223 207 250 264 258 258 298 299 333 315 282 239 228 219 212 215 211 210 210 206 205 207 210 200 209 205 183 174 172 176 182 186 189 186 193 197 214 234 226 228
Height
1483 1491 1498 1496 1494 1496 1501 1507 1512 1508 1502 1506 1510 1511 1510 1511 1512 1514 1515 1516 1517 1519 1521 1523 1525 1527 1528 1529 1531 1532 1533 1534 1535 1536 1537 1538 1538 1539 1539 1540 1541 1541 1541 1542
1490 1494 1488 1487 1490 1494 1500 1508 1510 1507 1502 1506 1512 1512 1508 1508 1509 1510 1512 1514 1515 1517 1520 1522 1524 1525 1527 1528 1530 1531 1533 1534 1536 1537 1537 1538 1538 1539 1539 1539 1540 1540 1541 1541
1489 1487 1483 1487 1492 1497 1501 1506 1507 1508 1506 1507 1511 1515 1511 1508 1508 1510 1511 1512 1514 1515 1517 1519 1522 1524 1526 1528 1529 1531 1532 1534 1535 1536 1537 1537 1538 1537 1538 1539 1539 1540 1540 1540
1484 1481 1483 1487 1491 1494 1503 1495 1498 1504 1514 1522 1518 1533 1515 1509 1509 1507 1508 1509 1511 1513 1515 1518 1520 1522 1524 1526 1528 1530 1532 1533 1534 1535 1536 1536 1537 1537 1537 1537 1538 1539 1539 1539
1484 1480 1482 1487 1486 1488 1494 1492 1498 1505 1514 1524 1523 1532 1523 1511 1511 1506 1504 1505 1507 1509 1512 1515 1518 1520 1523 1525 1527 1529 1530 1532 1533 1534 1535 1535 1536 1536 1536 1536 1537 1537 1538 1538
1478 1476 1477 1480 1480 1483 1489 1498 1506 1515 1523 1536 1528 1532 1527 1514 1507 1501 1500 1501 1503 1506 1510 1513 1516 1519 1522 1524 1526 1528 1529 1530 1532 1533 1533 1534 1534 1535 1535 1535 1535 1536 1536 1536
1483 1479 1476 1477 1484 1487 1491 1510 1532 1536 1545 1541 1527 1529 1523 1501 1497 1496 1496 1497 1500 1503 1507 1510 1513 1516 1519 1522 1524 1526 1528 1529 1530 1531 1532 1532 1533 1533 1533 1534 1534 1534 1534 1534
1494 1496 1478 1475 1480 1489 1493 1503 1529 1543 1546 1540 1529 1528 1510 1495 1493 1492 1493 1495 1498 1501 1504 1507 1510 1513 1517 1520 1522 1524 1526 1528 1529 1530 1531 1531 1532 1532 1532 1533 1533 1533 1533 1533
1494 1493 1475 1472 1473 1480 1495 1503 1504 1526 1534 1540 1534 1521 1504 1493 1492 1491 1492 1494 1496 1499 1502 1505 1508 1512 1515 1518 1520 1523 1524 1525 1527 1528 1529 1530 1530 1530 1531 1531 1531 1532 1532 1532
1480 1489 1478 1474 1474 1480 1485 1496 1512 1526 1541 1544 1532 1525 1517 1499 1495 1492 1492 1493 1495 1498 1501 1504 1507 1510 1513 1516 1519 1521 1523 1524 1525 1526 1527 1528 1529 1529 1529 1530 1530 1530 1530 1530
1474 1486 1485 1479 1482 1487 1491 1499 1510 1522 1524 1540 1542 1527 1497 1494 1491 1490 1490 1491 1494 1496 1499 1502 1506 1509 1512 1515 1517 1519 1521 1523 1524 1525 1526 1527 1527 1528 1528 1528 1528 1529 1529 1529
1476 1487 1496 1487 1479 1477 1481 1491 1502 1515 1525 1529 1532 1522 1488 1488 1487 1487 1488 1490 1492 1495 1498 1502 1504 1507 1510 1513 1516 1518 1520 1521 1522 1523 1524 1525 1525 1526 1526 1527 1527 1527 1527 1527
1474 1488 1503 1500 1494 1485 1485 1490 1495 1504 1519 1528 1529 1514 1487 1487 1486 1486 1487 1489 1491 1494 1498 1501 1504 1506 1509 1511 1514 1516 1518 1519 1520 1521 1522 1523 1524 1524 1525 1525 1526 1526 1526 1526
1468 1486 1496 1503 1497 1488 1488 1490 1493 1499 1515 1521 1515 1504 1492 1489 1488 1487 1487 1488 1490 1493 1496 1499 1502 1505 1507 1509 1512 1514 1516 1517 1518 1519 1520 1521 1522 1523 1524 1525 1525 1525 1525 1525
1469 1485 1485 1485 1481 1482 1484 1486 1489 1493 1498 1505 1502 1500 1492 1488 1487 1486 1487 1488 1490 1492 1495 1497 1500 1503 1505 1507 1509 1511 1514 1515 1516 1517 1518 1519 1520 1521 1522 1523 1523 1523 1523 1523
1474 1484 1484 1486 1482 1482 1486 1485 1487 1489 1491 1493 1494 1495 1487 1486 1486 1487 1487 1488 1489 1491 1493 1496 1499 1501 1503 1505 1508 1509 1511 1513 1515 1516 1517 1518 1518 1519 1520 1521 1521 1521 1521 1521
1480 1484 1492 1496 1487 1485 1495 1487 1486 1487 1485 1488 1493 1490 1486 1486 1486 1485 1486 1486 1488 1490 1492 1495 1497 1499 1501 1503 1505 1507 1508 1511 1512 1514 1515 1516 1517 1517 1519 1519 1519 1519 1520 1520
1479 1487 1497 1500 1494 1504 1492 1479 1480 1483 1484 1483 1484 1484 1484 1484 1484 1484 1485 1485 1486 1488 1490 1492 1494 1496 1499 1501 1503 1505 1507 1509 1510 1511 1513 1514 1515 1515 1516 1517 1517 1517 1518 1518
1474 1483 1497 1505 1505 1498 1486 1479 1480 1484 1487 1483 1483 1483 1483 1483 1484 1484 1485 1485 1486 1488 1489 1490 1492 1494 1496 1498 1500 1503 1504 1506 1508 1509 1511 1512 1512 1513 1514 1514 1514 1515 1516 1516
1477 1480 1493 1502 1502 1504 1487 1477 1475 1480 1489 1482 1481 1482 1483 1483 1488 1486 1484 1485 1486 1487 1488 1489 1490 1492 1494 1496 1498 1499 1501 1503 1504 1506 1508 1509 1510 1511 1511 1512 1513 1514 1514 1515
1485 1489 1494 1498 1499 1492 1479 1475 1475 1490 1488 1479 1479 1480 1481 1483 1484 1483 1483 1484 1485 1486 1487 1488 1489 1491 1492 1494 1496 1497 1499 1500 1502 1504 1505 1506 1507 1508 1509 1510 1511 1511 1512 1512
1487 1491 1496 1498 1498 1494 1476 1475 1479 1480 1476 1476 1477 1478 1479 1480 1480 1481 1482 1483 1484 1485 1486 1487 1488 1489 1491 1492 1494 1495 1496 1498 1500 1501 1503 1504 1504 1505 1506 1507 1508 1509 1509 1510
1484 1484 1486 1487 1487 1478 1475 1475 1475 1475 1475 1476 1476 1477 1478 1478 1479 1479 1480 1481 1482 1483 1485 1486 1487 1488 1489 1490 1491 1492 1494 1495 1496 1498 1500 1501 1502 1502 1503 1504 1504 1505 1506 1506
1480 1479 1481 1482 1478 1476 1474 1474 1474 1475 1475 1476 1477 1477 1477 1478 1478 1479 1479 1480 1481 1481 1483 1484 1485 1486 1487 1488 1489 1490 1491 1493 1494 1495 1496 1497 1498 1499 1500 1500 1501 1502 1502 1503
1479 1478 1480 1481 1477 1475 1474 1474 1474 1474 1475 1475 1476 1477 1477 1477 1477 1477 1478 1478 1479 1479 1480 1481 1482 1483 1484 1485 1486 1487 1488 1489 1491 1492 1494 1494 1495 1495 1496 1497 1498 1499 1499 1500
1476 1477 1478 1478 1474 1475 1474 1473 1474 1474 1474 1474 1474 1474 1475 1475 1475 1475 1476 1476 1477 1477 1478 1478 1479 1480 1481 1481 1483 1485 1486 1486 1488 1489 1490 1491 1492 1492 1493 1493 1494 1494 1495 1496